[[{"header":{"parameterUnit":"m.s-1","parameterCategory":1,"la1":30.2991,"la2":30.254,"lo1":-89.0895,"lo2":-89.0444,"dy":0.0017,"dx":0.0017,"nx":28,"ny":28,"refTime":"2025-04-30T09:00:00:Z","depth":0,"parameterNumber":2,"parameterNumberName":"U-component_of_WINDS"},"data":[0,0,0,0,0,0,0,0,0,0,0,0,0,0,0,0,0,0,0,0,0,0,0,0,0,0,0,0,0,0,0,0,0,0,0,0,0,0,0,0,0,0,0,0,0,0,0,0,0,0,0,0,0,0,0,0,0,0,-1.9417,-1.9417,0,-1.9498,-1.9499,-1.95,-1.9491,-1.949,-1.9488,-1.9487,-1.9572,-1.9575,-1.9579,0,0,0,0,0,0,0,0,0,0,0,0,0,-1.9254,-1.9257,-1.9417,-1.9418,-1.9419,-1.9498,-1.9499,-1.95,-1.9491,-1.949,-1.9488,-1.9486,-1.9571,-1.9575,-1.9579,0,0,0,0,0,0,0,0,0,0,0,0,0,-1.9329,-1.9258,-1.9416,-1.9423,-1.9425,-1.9498,-1.9499,-1.9501,-1.9491,-1.9489,-1.9488,-1.9486,-1.9569,-1.9574,-1.958,-1.9651,0,0,-1.9596,-1.9598,0,0,0,0,0,0,0,0,-1.9324,-1.9335,-1.9421,-1.9423,-1.9425,-1.9482,-1.9473,-1.9551,-1.9492,-1.9466,-1.9487,-1.9485,-1.9544,-1.9551,-1.9571,-1.9655,-1.9659,-1.9596,-1.9599,-1.9601,-1.9603,0,0,0,0,0,0,0,-1.9319,-1.9331,-1.9449,-1.9423,-1.9425,-1.9423,-1.9432,-1.9488,-1.9515,-1.9468,-1.9468,-1.9478,-1.9544,-1.9566,-1.9573,-1.966,-1.9596,-1.9601,-1.9604,-1.9606,-1.9807,-1.981,0,0,0,0,0,0,-1.9312,-1.9327,-1.9446,-1.9451,-1.9369,-1.9428,-1.9437,-1.9466,-1.9514,-1.952,-1.9479,-1.9477,-1.9558,-1.9567,-1.9576,-1.9662,-1.9601,-1.9606,-1.9609,-1.9805,-1.9808,-1.981,0,0,0,0,0,0,-1.9309,-1.9323,-1.9443,-1.9389,-1.9404,-1.9432,-1.9465,-1.9469,-1.949,-1.9523,-1.9528,-1.9496,-1.9557,-1.9568,-1.9632,-1.9665,-1.9609,-1.9613,-1.9803,-1.9806,-1.9809,-1.9837,0,0,0,0,0,0,-1.9304,-1.9322,-1.9349,-1.939,-1.9407,-1.9498,-1.9467,-1.9472,-1.9499,-1.9496,-1.954,-1.9545,-1.9556,-1.9625,-1.9638,-1.9671,-1.9617,-1.98,-1.9804,-1.9808,-1.9833,-1.9841,-1.9847,0,0,0,0,0,-1.9298,-1.9354,-1.935,-1.9365,-1.9442,-1.95,-1.951,-1.9521,-1.9501,-1.9529,-1.955,-1.9543,-1.966,-1.9631,-1.9646,-1.9682,-1.9798,-1.9803,-1.9808,-1.983,-1.9839,-1.9847,0,0,0,0,0,0,-1.9316,-1.9359,-1.9356,-1.9426,-1.9459,-1.9498,-1.9534,-1.9531,-1.9571,-1.9567,-1.958,-1.959,-1.9654,-1.9675,-1.9642,-1.9754,-1.9726,-1.9734,-1.9738,-1.9747,-1.9754,-1.9748,-1.9622,0,0,0,0,0,-1.9328,-1.9372,-1.9407,-1.9466,-1.9483,-1.9505,-1.9531,-1.9537,-1.9572,-1.9587,-1.9612,-1.9647,-1.9691,-1.972,-1.9763,-1.9836,-1.9845,-1.9868,-1.9875,-1.9881,-1.9888,-1.9928,-1.9938,-1.9827,-1.9827,-1.9827,0,0,-1.9354,-1.9383,-1.941,-1.947,-1.9497,-1.9542,-1.9517,-1.9566,-1.96,-1.9594,-1.9656,-1.9676,-1.9716,-1.9785,-1.9817,-1.9804,-1.992,-1.9887,-1.9891,-1.9895,-1.9934,-1.9944,-1.9954,-1.983,-1.983,-1.9829,0,0,-1.9424,-1.945,-1.9501,-1.9528,-1.9569,-1.9583,-1.9596,-1.9635,-1.9649,-1.9711,-1.9707,-1.9748,-1.9824,-1.9853,-1.9877,-1.9958,-1.9953,-1.9971,-2.0008,-2.0047,-2.0056,-2.0064,-2.0092,-2.0103,-1.9978,-1.9978,-1.9978,0,-1.945,-1.9518,-1.9528,-1.9578,-1.9604,-1.9601,-1.9654,-1.9679,-1.9732,-1.9751,-1.9735,-1.9831,-1.9857,-1.9933,-1.9953,-1.9973,-1.9987,-1.9966,-2.0054,-2.0062,-2.0069,-2.0097,-2.0107,-1.998,-1.998,-1.998,-1.9979,0,-1.9549,-1.9596,-1.9633,-1.9683,-1.9714,-1.9765,-1.9783,-1.9813,-1.9817,-1.9833,-1.9897,-1.9928,-1.9977,-1.9996,-2.0,-2.0072,-2.0063,-2.0051,-2.0023,-2.0081,-2.0108,-2.0118,-1.9983,-1.9982,-1.9981,-1.9981,0,0,-1.9632,-1.9687,-1.9701,-1.9723,-1.9768,-1.9804,-1.9855,-1.9903,-1.9928,-1.9965,-2.0008,-2.0072,-2.0061,-2.0089,-2.0096,-2.013,-2.0192,-2.0114,-2.0115,-2.0127,-2.0274,-2.0283,-2.0295,-2.0189,-2.0191,-2.0193,-2.0271,0,-1.9706,-1.9795,-1.9806,-1.9885,-1.9929,-1.9926,-1.9971,-2.0003,-2.002,-2.0059,-2.0078,-2.0124,-2.0105,-2.0122,-2.0156,-2.0177,-2.0222,-2.0172,-2.023,-2.0232,-2.022,-2.0309,-2.0318,-2.039,-2.0281,-2.0283,-2.0284,0,-1.9804,-1.9843,-1.9926,-1.9964,-1.9983,-2.0023,-2.0067,-2.0105,-2.0142,-2.0151,-2.0183,-2.0185,-2.0238,-2.0208,-2.0282,-2.0247,-2.0272,-2.0286,-2.0289,-2.0295,-2.0261,-2.0317,-2.0413,-2.0424,-2.03,-2.0299,-2.0298,0,-1.9856,-1.9929,-1.9989,-2.0008,-2.0054,-2.0082,-2.0103,-2.0137,-2.0165,-2.0204,-2.0223,-2.0268,-2.0292,-2.0327,-2.0342,-2.0319,-2.0414,-2.0386,-2.0424,-2.0424,-2.0444,-2.0443,-2.0546,-2.046,-2.046,-2.046,-2.0459,0,-1.9938,-1.9989,-2.0013,-2.0049,-2.0107,-2.0119,-2.0176,-2.0195,-2.0226,-2.0267,-2.0268,-2.0306,-2.0323,-2.0364,-2.0376,-2.0435,-2.0446,-2.0456,-2.0458,-2.0456,-2.0454,-2.0472,-2.0467,-2.0463,-2.0462,-2.0461,-2.0461,0,-2.0006,-2.0024,-2.0088,-2.0127,-2.0138,-2.0178,-2.0211,-2.0247,-2.0263,-2.0314,-2.0327,-2.0353,-2.0402,-2.042,-2.0479,-2.0487,-2.0555,-2.0553,-2.0542,-2.0543,-2.058,-2.0576,-2.0698,-2.0715,-2.0618,-2.0619,-2.0619,0,-2.0057,-2.0096,-2.0138,-2.0165,-2.0187,-2.023,-2.0258,-2.0272,-2.0302,-2.0346,-2.0377,-2.0425,-2.0464,-2.0541,-2.0566,-2.0611,-2.0611,-2.065,-2.0617,-2.0614,-2.0611,-2.0609,-2.0613,-2.0656,-2.0657,-2.0658,-2.0659,0,-2.0145,-2.0152,-2.0192,-2.0236,-2.027,-2.0305,-2.0339,-2.0361,-2.038,-2.0414,-2.0463,-2.0493,-2.0553,-2.0601,-2.0647,-2.0669,-2.0667,-2.0669,-2.068,-2.0678,-2.0669,-2.0674,-2.0559,-2.0666,-2.0665,-2.0664,-2.0664,-2.0664,-2.0206,-2.0241,-2.0276,-2.0321,-2.0348,-2.038,-2.0415,-2.0436,-2.0477,-2.0526,-2.0532,-2.0585,-2.0621,-2.0683,-2.0707,-2.0749,-2.0738,-2.0754,-2.0758,-2.0762,-2.0765,-2.0663,-2.0757,-2.0757,-2.0757,-2.0757,-2.0756,0,-2.0294,-2.0317,-2.0358,-2.0406,-2.0441,-2.0436,-2.0473,-2.0504,-2.055,-2.0583,-2.0621,-2.0678,-2.0724,-2.0752,-2.0799,-2.0827,-2.0827,-2.0839,-2.0837,-2.0842,-2.0772,-2.0757,-2.0838,-2.0838,-2.0838,-2.0838,-2.0838,-2.0838,-2.0345,-2.0403,-2.0414,-2.0486,-2.0508,-2.0559,-2.0581,-2.0611,-2.0637,-2.07,-2.0739,-2.0756,-2.0788,-2.0836,-2.0879,-2.0886,-2.0903,-2.0915,-2.0922,-2.0855,-2.0847,-2.0839,-2.0825,-2.0919,-2.0919,-2.0989,-2.0989,-2.099]},{"header":{"parameterUnit":"m.s-1","parameterCategory":1,"la1":30.2991,"la2":30.254,"lo1":-89.0895,"lo2":-89.0444,"dy":0.0017,"dx":0.0017,"nx":28,"ny":28,"refTime":"2025-04-30T09:00:00:Z","depth":0,"parameterNumber":3,"parameterNumberName":"V-component_of_WINDS"},"data":[0,0,0,0,0,0,0,0,0,0,0,0,0,0,0,0,0,0,0,0,0,0,0,0,0,0,0,0,0,0,0,0,0,0,0,0,0,0,0,0,0,0,0,0,0,0,0,0,0,0,0,0,0,0,0,0,0,0,3.6887,3.6888,0,3.6904,3.6904,3.6905,3.6842,3.684,3.6838,3.6836,3.6852,3.6854,3.6856,0,0,0,0,0,0,0,0,0,0,0,0,0,3.6798,3.68,3.6887,3.6888,3.6888,3.6904,3.6904,3.6905,3.6842,3.684,3.6837,3.6835,3.6851,3.6853,3.6856,0,0,0,0,0,0,0,0,0,0,0,0,0,3.6828,3.6801,3.6887,3.6859,3.6856,3.6904,3.6904,3.6905,3.6843,3.684,3.6837,3.6834,3.685,3.6853,3.6856,3.6932,0,0,3.6866,3.6868,0,0,0,0,0,0,0,0,3.6826,3.6831,3.6863,3.6861,3.6858,3.6868,3.6878,3.6914,3.6843,3.6848,3.6836,3.6833,3.6859,3.6862,3.6871,3.6933,3.6934,3.6867,3.6869,3.687,3.6871,0,0,0,0,0,0,0,3.6824,3.683,3.6894,3.6863,3.686,3.6844,3.6845,3.6885,3.6869,3.6847,3.6843,3.6845,3.6857,3.6868,3.6871,3.6934,3.6866,3.6869,3.6871,3.6873,3.7056,3.7059,0,0,0,0,0,0,3.6827,3.6829,3.6893,3.6894,3.6835,3.6848,3.6849,3.6868,3.6868,3.6866,3.6848,3.6843,3.6864,3.6867,3.6871,3.6957,3.687,3.6873,3.6875,3.7054,3.7057,3.706,0,0,0,0,0,0,3.6825,3.6833,3.6893,3.6861,3.6867,3.6852,3.6874,3.6869,3.688,3.6869,3.6865,3.6862,3.6862,3.6866,3.6917,3.6957,3.6874,3.6877,3.705,3.7055,3.7059,3.7133,0,0,0,0,0,0,3.6823,3.6833,3.6862,3.6862,3.6869,3.694,3.6876,3.6872,3.6886,3.6879,3.6881,3.6878,3.686,3.6913,3.692,3.696,3.688,3.7046,3.7052,3.7057,3.7127,3.7139,3.715,0,0,0,0,0,3.682,3.6883,3.6864,3.6872,3.6906,3.6942,3.6946,3.6924,3.6889,3.6918,3.6911,3.6878,3.6952,3.6918,3.6926,3.6968,3.7044,3.705,3.7057,3.7121,3.7137,3.715,0,0,0,0,0,0,3.6888,3.6882,3.6861,3.6926,3.6935,3.6931,3.6967,3.6941,3.696,3.6952,3.6923,3.6924,3.6979,3.6979,3.6941,3.704,3.6992,3.7,3.7038,3.7052,3.7064,3.7062,3.6882,0,0,0,0,0,3.6911,3.6941,3.6934,3.6992,3.6998,3.6982,3.6997,3.6979,3.6987,3.699,3.6987,3.6995,3.7019,3.7036,3.7059,3.7127,3.7125,3.716,3.7171,3.7181,3.7188,3.7221,3.7236,3.7082,3.7082,3.7082,0,0,3.6957,3.6958,3.6979,3.7006,3.7011,3.7042,3.6985,3.7022,3.7044,3.6995,3.7042,3.704,3.7047,3.7107,3.7132,3.7108,3.723,3.7189,3.7197,3.7199,3.723,3.7244,3.7257,3.7087,3.7086,3.7085,0,0,3.7058,3.7063,3.711,3.7116,3.7124,3.7113,3.7125,3.7125,3.7121,3.7168,3.7132,3.7158,3.7202,3.7207,3.7216,3.7318,3.7288,3.7327,3.7387,3.742,3.7432,3.7442,3.7476,3.7489,3.7334,3.7334,3.7335,0,3.7115,3.7162,3.7138,3.7176,3.7187,3.7146,3.7192,3.7199,3.7214,3.7222,3.7195,3.7248,3.725,3.7309,3.7333,3.7343,3.7353,3.7325,3.7432,3.7442,3.7452,3.7484,3.7497,3.7339,3.7338,3.7338,3.7337,0,3.723,3.7263,3.73,3.7315,3.7331,3.7373,3.7355,3.7374,3.7355,3.7346,3.7393,3.7394,3.7415,3.7428,3.741,3.7484,3.7468,3.7437,3.7387,3.7471,3.75,3.7513,3.7345,3.7344,3.7342,3.7341,0,0,3.7373,3.7374,3.7388,3.7393,3.7398,3.7422,3.7462,3.7483,3.7498,3.751,3.7541,3.7579,3.755,3.756,3.7542,3.7572,3.7649,3.7537,3.7536,3.7555,3.7728,3.7749,3.7764,3.7631,3.7633,3.7635,3.7726,0,3.747,3.7538,3.7517,3.7585,3.7613,3.7574,3.7608,3.7614,3.7607,3.763,3.7622,3.7648,3.7609,3.7614,3.7642,3.7634,3.7683,3.7628,3.7657,3.7658,3.7654,3.778,3.7803,3.7889,3.7738,3.774,3.7741,0,3.7592,3.7608,3.7678,3.7677,3.7688,3.7719,3.7735,3.7758,3.7763,3.7756,3.7767,3.7743,3.778,3.7732,3.7782,3.7745,3.7756,3.7754,3.7757,3.7757,3.7703,3.778,3.7916,3.7928,3.776,3.7758,3.7757,0,3.7686,3.7725,3.7771,3.7778,3.7778,3.78,3.7801,3.7805,3.7818,3.7832,3.7839,3.7858,3.7868,3.7882,3.7863,3.783,3.7915,3.7866,3.7908,3.7909,3.7926,3.7924,3.8063,3.7938,3.7938,3.7937,3.7937,0,3.7794,3.7839,3.7813,3.7842,3.7889,3.7865,3.7912,3.7909,3.7912,3.7938,3.7906,3.7931,3.7905,3.7928,3.7913,3.7955,3.7961,3.7954,3.7949,3.7956,3.7956,3.7961,3.7953,3.7941,3.794,3.7939,3.7939,0,3.7907,3.7892,3.7939,3.7936,3.7936,3.7971,3.7967,3.7992,3.7983,3.8016,3.8023,3.8008,3.8032,3.8015,3.804,3.803,3.8085,3.8073,3.8083,3.8078,3.812,3.8116,3.8264,3.8282,3.8148,3.8149,3.8151,0,3.7976,3.8008,3.8008,3.8023,3.8026,3.8051,3.8064,3.8041,3.8056,3.8064,3.8088,3.811,3.8126,3.8167,3.8158,3.8176,3.8163,3.8214,3.8165,3.817,3.816,3.8158,3.816,3.8223,3.8224,3.8226,3.8227,0,3.8099,3.809,3.811,3.8127,3.8143,3.8155,3.8165,3.8179,3.8156,3.8174,3.8198,3.8211,3.8235,3.8257,3.8272,3.8272,3.8245,3.8242,3.8252,3.8258,3.8261,3.8257,3.8107,3.8238,3.8237,3.8236,3.8236,3.8235,3.819,3.8216,3.8219,3.8242,3.8247,3.8256,3.8279,3.8272,3.8292,3.831,3.8296,3.8325,3.8328,3.8346,3.8349,3.8371,3.835,3.8365,3.8368,3.8372,3.8377,3.826,3.8374,3.8373,3.8373,3.8373,3.8372,0,3.8309,3.8309,3.833,3.8344,3.8361,3.8336,3.8344,3.836,3.8386,3.8392,3.8408,3.8435,3.8456,3.8448,3.8466,3.8485,3.8473,3.849,3.8487,3.8487,3.8396,3.8384,3.8499,3.8499,3.8499,3.8499,3.8499,3.8499,3.8373,3.8415,3.8406,3.845,3.8449,3.8477,3.8484,3.8492,3.8496,3.8528,3.8544,3.8539,3.8539,3.8557,3.8574,3.8571,3.8578,3.8599,3.8592,3.8506,3.8494,3.8482,3.847,3.8602,3.8602,3.8681,3.8681,3.8682]}]]